North Canton, OH

6:58 AM EDT on September 25, 2016 (GMT -0400)
Akron-Canton Regional

Weather History for KCAK - November, 2013

Change the Weather History Date:

Saturday, November 2, 2013

  Actual Average Record
Temperature  
Mean Temperature 47 °F 46 °F  
Max Temperature 50 °F 55 °F 76 °F (1933)
Min Temperature 43 °F 38 °F 22 °F (1905)
Degree Days  
Heating Degree Days 18 19  
Month to date heating degree days 29 37  
Since 1 July heating degree days 493 592  
Cooling Degree Days 0 0  
Month to date cooling degree days 0 0  
Year to date cooling degree days 829 652  
Moisture  
Dew Point 42 °F    
Average Humidity 81    
Maximum Humidity 96    
Minimum Humidity 66    
Precipitation  
Precipitation 0.13 in 0.11 in 2.04 in (1999)
Month to date precipitation 0.36 0.22  
Year to date precipitation 35.62 33.70  
Snow  
Snow 0.00 in 0.10 in - ()
Month to date snowfall 0.0 0.1  
Since 1 July snowfall T 0.5  
Since 1 September snowfall T 0.5  
Snow Depth 0.00 in    
Sea Level Pressure  
Sea Level Pressure 29.79 in    
Wind  
Wind Speed 8 mph (West)    
Max Wind Speed 17 mph    
Max Gust Speed 17 mph    
Visibility 8 miles    
Events Rain    
T = Trace of Precipitation, MM = Missing Value Source: NWS Daily Summary

Daily Weather History Graph

Daily Weather History Graph

Search for Another Location

Airport or City:

Trip Planner

Search our weather history database for the weather conditions in past years. The results will help you decide how hot, cold, wet, or windy it might be!

Date:

Astronomy

Nov. 02, 2013 Rise Set
Actual Time 7:57 AM EDT 6:20 PM EDT
Civil Twilight 7:29 AM EDT 6:48 PM EDT
Nautical Twilight 6:56 AM EDT 7:21 PM EDT
Astronomical Twilight 6:24 AM EDT 7:53 PM EDT
Moon 6:53 AM EDT (11/2) 5:50 PM EDT (11/2)
Length of Visible Light 11h 19m
Length of Day
10h 22m
Waning Crescent, 1% of the Moon is Illuminated
Nov 2
Waning Crescent
Nov 3
New
Nov 10
First Quarter
Nov 17
Full
Nov 25
Last Quarter

Hourly Weather History & Observations

Time (EDT) Temp. Windchill Dew Point Humidity Pressure Visibility Wind Dir Wind Speed Gust Speed Precip Events Conditions
12:51 AM 50.2 °F - 49.1 °F 96% 29.69 in 7.0 mi Calm Calm - 0.01 in   Overcast
1:51 AM 50.2 °F - 49.1 °F 96% 29.69 in 7.0 mi North - - N/A   Mostly Cloudy
2:51 AM 50.4 °F - 42.3 °F 74% 29.68 in 10.0 mi Calm Calm - N/A   Mostly Cloudy
3:51 AM 50.0 °F - 39.7 °F 68% 29.68 in 10.0 mi WSW 4.6 mph - N/A   Mostly Cloudy
4:51 AM 49.5 °F - 38.3 °F 65% 29.68 in 10.0 mi Calm Calm - N/A   Overcast
5:51 AM 48.4 °F - 39.6 °F 72% 29.70 in 10.0 mi WSW 6.9 mph - N/A   Overcast
6:51 AM 47.3 °F - 40.5 °F 77% 29.71 in 7.0 mi WSW 6.9 mph - 0.00 in Rain Light Rain
7:44 AM 46.4 °F 42.9 °F 41.0 °F 81% 29.71 in 8.0 mi WSW 6.9 mph - N/A   Overcast
7:51 AM 45.9 °F 41.7 °F 42.6 °F 88% 29.72 in 10.0 mi WSW 8.1 mph - 0.00 in   Overcast
8:51 AM 45.9 °F 41.7 °F 42.6 °F 88% 29.73 in 6.0 mi WSW 8.1 mph - N/A   Overcast
9:51 AM 45.9 °F 41.7 °F 42.6 °F 88% 29.75 in 5.0 mi West 8.1 mph - 0.00 in Rain Light Rain
10:30 AM 46.4 °F 42.4 °F 42.8 °F 87% 29.75 in 2.0 mi WSW 8.1 mph - 0.00 in Rain Light Rain
10:51 AM 45.9 °F 41.7 °F 42.6 °F 88% 29.76 in 2.0 mi WSW 8.1 mph - 0.02 in Rain Light Rain
11:06 AM 46.4 °F 42.4 °F 42.8 °F 87% 29.75 in 3.0 mi WSW 8.1 mph - N/A Rain Light Rain
11:51 AM 47.1 °F - 43.3 °F 87% 29.77 in 5.0 mi WSW 8.1 mph - 0.00 in Rain Light Rain
12:51 PM 48.7 °F - 43.3 °F 82% 29.78 in 10.0 mi West 9.2 mph - 0.00 in Rain Light Rain
12:59 PM 48.2 °F - 42.8 °F 82% 29.77 in 10.0 mi West 9.2 mph - N/A Rain Light Rain
1:51 PM 48.7 °F - 43.3 °F 82% 29.78 in 10.0 mi WSW 9.2 mph - 0.01 in   Mostly Cloudy
2:51 PM 48.7 °F - 41.5 °F 76% 29.78 in 10.0 mi WSW 15.0 mph - N/A   Mostly Cloudy
3:51 PM 46.8 °F - 42.4 °F 85% 29.81 in 7.0 mi WNW 13.8 mph - 0.00 in Rain Light Rain
4:51 PM 45.3 °F 39.0 °F 43.2 °F 92% 29.84 in 7.0 mi WNW 13.8 mph - 0.04 in Rain Light Rain
5:51 PM 45.3 °F 39.7 °F 43.2 °F 92% 29.87 in 7.0 mi WNW 11.5 mph - 0.02 in Rain Light Rain
6:51 PM 43.9 °F 39.3 °F 41.7 °F 92% 29.89 in 9.0 mi WNW 8.1 mph - 0.02 in   Mostly Cloudy
7:51 PM 43.5 °F 38.9 °F 41.7 °F 93% 29.92 in 9.0 mi NW 8.1 mph - N/A   Overcast
8:51 PM 44.1 °F 36.5 °F 41.7 °F 91% 29.95 in 5.0 mi NNW 17.3 mph - 0.00 in Rain Light Rain
9:51 PM 44.1 °F 39.0 °F 41.7 °F 91% 29.97 in 8.0 mi NNW 9.2 mph - 0.02 in   Overcast
10:51 PM 43.0 °F 37.7 °F 39.9 °F 89% 30.01 in 8.0 mi North 9.2 mph - 0.00 in   Overcast
11:51 PM 46.4 °F 41.9 °F 36.0 °F 67% 30.02 in 8.0 mi NNW 9.2 mph - 0.00 in Rain Light Rain